[[{"header":{"parameterUnit":"m.s-1","parameterCategory":1,"la1":30.2991,"la2":30.254,"lo1":-89.0895,"lo2":-89.0444,"dy":0.0017,"dx":0.0017,"nx":28,"ny":28,"refTime":"2025-04-11T03:00:00:Z","depth":0,"parameterNumber":2,"parameterNumberName":"U-component_of_WINDS"},"data":[0,0,0,0,0,0,0,0,0,0,0,0,0,0,0,0,0,0,0,0,0,0,0,0,0,0,0,0,0,0,0,0,0,0,0,0,0,0,0,0,0,0,0,0,0,0,0,0,0,0,0,0,0,0,0,0,0,0,0.565,0.565,0,0.5697,0.5697,0.5698,0.5653,0.5651,0.565,0.5648,0.5697,0.57,0.5703,0,0,0,0,0,0,0,0,0,0,0,0,0,0.5523,0.5525,0.565,0.565,0.5651,0.5697,0.5698,0.5698,0.5654,0.5651,0.5649,0.5647,0.5696,0.57,0.5704,0,0,0,0,0,0,0,0,0,0,0,0,0,0.5575,0.5526,0.565,0.5634,0.5633,0.5697,0.5698,0.5698,0.5654,0.5651,0.5649,0.5646,0.5695,0.57,0.5704,0.5785,0,0,0.5718,0.572,0,0,0,0,0,0,0,0,0.5572,0.5579,0.5636,0.5635,0.5634,0.5666,0.5671,0.5728,0.5655,0.5646,0.5648,0.5645,0.5689,0.5694,0.5709,0.5788,0.579,0.5718,0.5721,0.5723,0.5724,0,0,0,0,0,0,0,0.5568,0.5577,0.5668,0.5637,0.5636,0.5625,0.563,0.5681,0.5682,0.5647,0.5644,0.565,0.5688,0.5705,0.571,0.5791,0.5718,0.5722,0.5725,0.5726,0.5941,0.5944,0,0,0,0,0,0,0.5566,0.5574,0.5667,0.567,0.5596,0.563,0.5635,0.5659,0.5682,0.5682,0.5652,0.5647,0.5698,0.5705,0.5711,0.581,0.5723,0.5727,0.5729,0.5938,0.5942,0.5945,0,0,0,0,0,0,0.5564,0.5575,0.5665,0.5621,0.5632,0.5635,0.5662,0.5661,0.5677,0.5686,0.5686,0.5668,0.5697,0.5705,0.5768,0.5811,0.5729,0.5733,0.5935,0.5939,0.5944,0.6008,0,0,0,0,0,0,0.556,0.5574,0.5605,0.5622,0.5634,0.572,0.5665,0.5664,0.5685,0.568,0.5701,0.5702,0.5695,0.5761,0.5772,0.5816,0.5737,0.5931,0.5937,0.5942,0.6002,0.6014,0.6024,0,0,0,0,0,0.5556,0.5621,0.5606,0.5618,0.5673,0.5723,0.573,0.5721,0.5689,0.572,0.5726,0.5701,0.5804,0.5768,0.578,0.5826,0.5928,0.5935,0.5942,0.5997,0.6012,0.6024,0,0,0,0,0,0,0.5608,0.5622,0.5607,0.5679,0.57,0.5715,0.5754,0.5736,0.5767,0.576,0.5747,0.5753,0.582,0.5828,0.5788,0.5907,0.5861,0.5871,0.5899,0.5913,0.5924,0.5922,0.574,0,0,0,0,0,0.5628,0.5667,0.5678,0.574,0.5752,0.5751,0.5773,0.5764,0.5785,0.5794,0.5804,0.5826,0.5863,0.5888,0.5923,0.6002,0.6007,0.604,0.6051,0.606,0.6069,0.6114,0.6129,0.5967,0.5967,0.5967,0,0,0.5669,0.5682,0.5708,0.5751,0.5766,0.5809,0.5759,0.5805,0.5837,0.5801,0.5862,0.587,0.5893,0.5966,0.5998,0.5975,0.6115,0.6069,0.6076,0.608,0.6123,0.6138,0.6152,0.5972,0.5971,0.597,0,0,0.5767,0.578,0.5835,0.5851,0.5875,0.5874,0.5888,0.5906,0.591,0.597,0.5945,0.5982,0.6046,0.6065,0.6083,0.6189,0.6169,0.6201,0.6261,0.6304,0.6317,0.6329,0.6369,0.6383,0.6209,0.621,0.621,0,0.5816,0.5878,0.5865,0.5914,0.5935,0.5904,0.5961,0.5977,0.6011,0.6027,0.6,0.6082,0.6095,0.6173,0.6199,0.6213,0.623,0.6199,0.6316,0.6327,0.6338,0.6376,0.6391,0.6213,0.6213,0.6213,0.6212,0,0.5938,0.5982,0.6023,0.6057,0.6082,0.6135,0.6131,0.6158,0.6147,0.615,0.6213,0.6228,0.6266,0.6283,0.6273,0.636,0.6345,0.6318,0.6272,0.6357,0.6393,0.6408,0.6219,0.6218,0.6217,0.6216,0,0,0.6071,0.6098,0.6114,0.613,0.6154,0.6188,0.6239,0.6277,0.6301,0.6326,0.637,0.6425,0.6401,0.6421,0.6412,0.645,0.6537,0.6418,0.6419,0.6442,0.6637,0.6659,0.6676,0.6522,0.6525,0.6527,0.6635,0,0.6172,0.6261,0.6252,0.6337,0.6378,0.635,0.6395,0.6415,0.6419,0.6455,0.6459,0.65,0.6463,0.6476,0.6512,0.6518,0.6576,0.651,0.6565,0.6567,0.6563,0.6694,0.6718,0.6819,0.6649,0.6651,0.6653,0,0.6301,0.6331,0.6421,0.6441,0.6458,0.6498,0.6533,0.6567,0.659,0.659,0.6614,0.6598,0.6651,0.6603,0.6676,0.6632,0.6654,0.666,0.6664,0.6671,0.6617,0.6707,0.6851,0.6867,0.6675,0.6673,0.6671,0,0.6393,0.6455,0.6517,0.6531,0.6555,0.6585,0.6596,0.6616,0.664,0.667,0.6686,0.6722,0.6742,0.6771,0.6766,0.6731,0.6842,0.6793,0.6846,0.6846,0.6872,0.6871,0.7024,0.6882,0.6882,0.6882,0.6881,0,0.6508,0.6564,0.6559,0.6598,0.6661,0.6649,0.6712,0.672,0.6739,0.6779,0.6756,0.6795,0.6785,0.6824,0.682,0.6883,0.6892,0.6895,0.6894,0.6898,0.6898,0.6914,0.6908,0.6886,0.6885,0.6884,0.6883,0,0.6621,0.662,0.6686,0.6703,0.6709,0.6755,0.677,0.6807,0.6809,0.6861,0.6872,0.6876,0.692,0.6918,0.6967,0.6965,0.7044,0.7033,0.7036,0.7035,0.7089,0.7085,0.726,0.7283,0.7124,0.7125,0.7126,0,0.6696,0.6739,0.6761,0.6787,0.68,0.6841,0.6865,0.6856,0.6883,0.6913,0.6947,0.6989,0.7022,0.7095,0.7102,0.7141,0.7132,0.7191,0.7138,0.7142,0.7136,0.7135,0.714,0.7202,0.7204,0.7205,0.7206,0,0.683,0.6827,0.6863,0.6899,0.6929,0.6957,0.6982,0.7005,0.6998,0.7029,0.7075,0.7101,0.7152,0.7195,0.7232,0.7244,0.7226,0.7223,0.7237,0.7244,0.7245,0.7248,0.7067,0.7219,0.7218,0.7217,0.7216,0.7216,0.6928,0.6965,0.6987,0.7029,0.7047,0.7072,0.7108,0.7115,0.7152,0.7194,0.7186,0.7237,0.726,0.7308,0.7324,0.7365,0.7344,0.7365,0.737,0.7376,0.7384,0.7237,0.7371,0.7371,0.737,0.737,0.737,0,0.7062,0.7075,0.7113,0.715,0.7183,0.7161,0.7189,0.7218,0.7264,0.7286,0.732,0.7373,0.7415,0.7426,0.7466,0.7497,0.7489,0.7508,0.7507,0.7511,0.7399,0.7383,0.7514,0.7514,0.7514,0.7514,0.7514,0.7514,0.7136,0.72,0.72,0.7273,0.7286,0.7336,0.7354,0.7377,0.7396,0.7456,0.7491,0.7497,0.7516,0.7558,0.7596,0.7598,0.7615,0.7638,0.7637,0.7533,0.7518,0.7505,0.749,0.7641,0.7641,0.7746,0.7747,0.7748]},{"header":{"parameterUnit":"m.s-1","parameterCategory":1,"la1":30.2991,"la2":30.254,"lo1":-89.0895,"lo2":-89.0444,"dy":0.0017,"dx":0.0017,"nx":28,"ny":28,"refTime":"2025-04-11T03:00:00:Z","depth":0,"parameterNumber":3,"parameterNumberName":"V-component_of_WINDS"},"data":[0,0,0,0,0,0,0,0,0,0,0,0,0,0,0,0,0,0,0,0,0,0,0,0,0,0,0,0,0,0,0,0,0,0,0,0,0,0,0,0,0,0,0,0,0,0,0,0,0,0,0,0,0,0,0,0,0,0,-3.496,-3.496,0,-3.4916,-3.4915,-3.4915,-3.4867,-3.4866,-3.4866,-3.4865,-3.4815,-3.4814,-3.4814,0,0,0,0,0,0,0,0,0,0,0,0,0,-3.5002,-3.5001,-3.496,-3.496,-3.4959,-3.4916,-3.4915,-3.4915,-3.4867,-3.4866,-3.4865,-3.4865,-3.4815,-3.4814,-3.4814,0,0,0,0,0,0,0,0,0,0,0,0,0,-3.4973,-3.5001,-3.496,-3.493,-3.4927,-3.4916,-3.4915,-3.4914,-3.4867,-3.4866,-3.4865,-3.4864,-3.4816,-3.4814,-3.4813,-3.4827,0,0,-3.481,-3.481,0,0,0,0,0,0,0,0,-3.4975,-3.4972,-3.4935,-3.4932,-3.4929,-3.4896,-3.4912,-3.4885,-3.4868,-3.489,-3.4865,-3.4864,-3.4842,-3.4839,-3.4833,-3.4824,-3.4822,-3.481,-3.4809,-3.4809,-3.4809,0,0,0,0,0,0,0,-3.4977,-3.4973,-3.4942,-3.4935,-3.4931,-3.4918,-3.4913,-3.4906,-3.4872,-3.4888,-3.4884,-3.488,-3.484,-3.4834,-3.4831,-3.4822,-3.481,-3.4809,-3.4808,-3.4808,-3.4825,-3.4827,0,0,0,0,0,0,-3.4984,-3.4975,-3.4944,-3.4941,-3.495,-3.4919,-3.4913,-3.4907,-3.4872,-3.4866,-3.4881,-3.4878,-3.4836,-3.4833,-3.4829,-3.4845,-3.4809,-3.4808,-3.4807,-3.4824,-3.4826,-3.4827,0,0,0,0,0,0,-3.4985,-3.4982,-3.4946,-3.4957,-3.4952,-3.4919,-3.4913,-3.4907,-3.4901,-3.4867,-3.486,-3.4881,-3.4835,-3.4831,-3.4829,-3.4843,-3.4807,-3.4807,-3.4823,-3.4825,-3.4826,-3.4875,0,0,0,0,0,0,-3.4986,-3.4982,-3.4987,-3.4958,-3.4951,-3.4947,-3.4914,-3.4907,-3.4899,-3.4895,-3.4865,-3.4859,-3.4834,-3.4831,-3.4828,-3.4841,-3.4806,-3.4822,-3.4824,-3.4826,-3.4872,-3.4879,-3.4884,0,0,0,0,0,-3.4988,-3.5001,-3.4988,-3.4984,-3.4957,-3.4948,-3.4944,-3.4916,-3.4901,-3.4906,-3.4884,-3.486,-3.4842,-3.4831,-3.4827,-3.484,-3.4821,-3.4823,-3.4826,-3.487,-3.4877,-3.4884,0,0,0,0,0,0,-3.503,-3.4996,-3.4981,-3.4985,-3.497,-3.494,-3.4944,-3.4925,-3.4912,-3.4908,-3.4873,-3.4867,-3.487,-3.4854,-3.4843,-3.4853,-3.4828,-3.483,-3.4863,-3.487,-3.4875,-3.4879,-3.4805,0,0,0,0,0,-3.5041,-3.5037,-3.5007,-3.5013,-3.5007,-3.4977,-3.4972,-3.4953,-3.4935,-3.4927,-3.4906,-3.4888,-3.4879,-3.4873,-3.4862,-3.487,-3.4864,-3.4877,-3.4883,-3.4888,-3.489,-3.4896,-3.4902,-3.4835,-3.4835,-3.4835,0,0,-3.5061,-3.5042,-3.5041,-3.5021,-3.5007,-3.5004,-3.4972,-3.4969,-3.4966,-3.4926,-3.4924,-3.4908,-3.4886,-3.4891,-3.4891,-3.4878,-3.4907,-3.4891,-3.4895,-3.4894,-3.4899,-3.4905,-3.4911,-3.4837,-3.4836,-3.4836,0,0,-3.5096,-3.5081,-3.5086,-3.5074,-3.5054,-3.5035,-3.5036,-3.501,-3.4998,-3.4996,-3.4968,-3.4963,-3.4947,-3.4934,-3.4925,-3.496,-3.4938,-3.4957,-3.4987,-3.4993,-3.4998,-3.5003,-3.5017,-3.5023,-3.4959,-3.4959,-3.4959,0,-3.5124,-3.5118,-3.5091,-3.5091,-3.5084,-3.5051,-3.5057,-3.5045,-3.5022,-3.5018,-3.5003,-3.4985,-3.4968,-3.497,-3.4979,-3.4972,-3.4973,-3.496,-3.5,-3.5004,-3.5008,-3.5021,-3.5027,-3.4962,-3.4962,-3.4961,-3.4961,0,-3.5154,-3.5151,-3.5158,-3.514,-3.5133,-3.5136,-3.5109,-3.5106,-3.5088,-3.507,-3.507,-3.5049,-3.5035,-3.5033,-3.5014,-3.5034,-3.5026,-3.5007,-3.4981,-3.5018,-3.503,-3.5035,-3.4966,-3.4965,-3.4964,-3.4963,0,0,-3.5213,-3.5183,-3.5186,-3.5179,-3.5156,-3.5152,-3.5154,-3.5143,-3.5142,-3.5127,-3.5129,-3.5118,-3.5101,-3.5091,-3.507,-3.5076,-3.5108,-3.5055,-3.5054,-3.5068,-3.5131,-3.5147,-3.5153,-3.5093,-3.5094,-3.5095,-3.5133,0,-3.5246,-3.5249,-3.5226,-3.5235,-3.5233,-3.5203,-3.5205,-3.5191,-3.5176,-3.5172,-3.5153,-3.5148,-3.5124,-3.5119,-3.5122,-3.5103,-3.512,-3.51,-3.5095,-3.5095,-3.5103,-3.5159,-3.5175,-3.5212,-3.5137,-3.5138,-3.5139,0,-3.5284,-3.5276,-3.5285,-3.5265,-3.5264,-3.5266,-3.5255,-3.5251,-3.5236,-3.5224,-3.5216,-3.5194,-3.5194,-3.517,-3.5172,-3.5159,-3.5155,-3.5146,-3.5147,-3.5146,-3.512,-3.5161,-3.5223,-3.523,-3.5146,-3.5145,-3.5144,0,-3.5329,-3.5319,-3.5325,-3.5319,-3.5295,-3.5298,-3.5288,-3.5272,-3.5268,-3.5258,-3.5255,-3.5245,-3.524,-3.5232,-3.5209,-3.5193,-3.5214,-3.5187,-3.5205,-3.5206,-3.5211,-3.5211,-3.5275,-3.5207,-3.5206,-3.5206,-3.5206,0,-3.5369,-3.5376,-3.5346,-3.5349,-3.5357,-3.5331,-3.534,-3.5326,-3.5313,-3.5314,-3.5286,-3.5287,-3.5255,-3.5252,-3.5233,-3.5239,-3.5236,-3.5227,-3.5222,-3.523,-3.5232,-3.5228,-3.5226,-3.5208,-3.5207,-3.5207,-3.5207,0,-3.542,-3.54,-3.5404,-3.5383,-3.5378,-3.5385,-3.5366,-3.5369,-3.5353,-3.5354,-3.5353,-3.5327,-3.5323,-3.5299,-3.5288,-3.5276,-3.5289,-3.5278,-3.5295,-3.5292,-3.5312,-3.5311,-3.5377,-3.5385,-3.531,-3.5311,-3.5312,0,-3.5447,-3.5453,-3.5433,-3.5433,-3.5425,-3.5424,-3.5421,-3.5395,-3.5393,-3.5378,-3.5383,-3.5377,-3.5371,-3.5367,-3.5347,-3.534,-3.5329,-3.5353,-3.5328,-3.5337,-3.5332,-3.5333,-3.5334,-3.5358,-3.5359,-3.536,-3.5361,0,-3.5498,-3.5489,-3.5486,-3.548,-3.5478,-3.5471,-3.5463,-3.5464,-3.5437,-3.5435,-3.5433,-3.5429,-3.542,-3.5415,-3.5406,-3.5394,-3.5374,-3.5369,-3.5373,-3.5382,-3.5393,-3.5389,-3.5311,-3.5367,-3.5367,-3.5366,-3.5366,-3.5366,-3.5539,-3.5544,-3.5533,-3.5531,-3.5523,-3.5517,-3.552,-3.5506,-3.5503,-3.5496,-3.5481,-3.5481,-3.5468,-3.5453,-3.5444,-3.5444,-3.5431,-3.5436,-3.5438,-3.544,-3.5446,-3.5392,-3.5441,-3.5441,-3.5441,-3.5441,-3.5441,0,-3.5591,-3.5583,-3.5582,-3.5573,-3.5572,-3.5555,-3.5546,-3.5546,-3.5547,-3.5537,-3.5534,-3.5532,-3.5528,-3.551,-3.5504,-3.5508,-3.5498,-3.5507,-3.5507,-3.5505,-3.5456,-3.5454,-3.5515,-3.5515,-3.5515,-3.5515,-3.5515,-3.5515,-3.5617,-3.5626,-3.5616,-3.5621,-3.5612,-3.5614,-3.5611,-3.5606,-3.5598,-3.5598,-3.5596,-3.5585,-3.5572,-3.5566,-3.5562,-3.5557,-3.5557,-3.557,-3.5561,-3.5516,-3.5508,-3.5502,-3.55,-3.5569,-3.557,-3.5611,-3.5611,-3.5612]}]]